{"data":{"norad_id":55617,"epoch":"2026-05-25T01:39:02.124576Z","epoch_age_seconds":68847,"freshness":"FRESH","line1":"1 55617U 23020BA  26145.06877459  .00000152  00000+0  15063-4 0  9991","line2":"2 55617  43.0033 282.6045 0001204 274.0061  86.0653 15.27578400180728","mean_motion":15.275784,"eccentricity":0.0001204,"inclination_deg":43.0033,"raan_deg":282.6045,"arg_perigee_deg":274.0061,"mean_anomaly_deg":86.0653,"bstar":1.5063e-5,"rev_number":18072,"period_min":94.266847449532,"perigee_km":482.22779963663,"apogee_km":483.87997440223,"semimajor_km":6861.1908870194,"source":"CELESTRAK","updated_at":"2026-05-25T13:38:17.844891Z"}}